Location: Newark
(39.9581°N, 97.2014°W)
Time: 20:20:49
(UTC+00:00)

Envisat - Pass Details

Date: 27 January 2020
Orbit: 764 x 766 km, 98.1° (Epoch: 22 February)

Event Time Altitude Azimuth Distance (km) Brightness Sun altitude
Rises 11:40:46 0° 37° (NE) 3,237 6.7 -23.2°
Reaches altitude 10° 11:45:01 10° 72° (ENE) 2,303 6.4 -22.4°
Maximum altitude 11:46:30 11° 89° (E) 2,219 6.5 -22.1°
Drops below altitude 10° 11:47:58 10° 106° (ESE) 2,298 6.6 -21.8°
Sets 11:52:11 0° 140° (SE) 3,217 6.9 -21.0°
